RH
22 22 22 24 29 41 77 95 97 96 96 99 99 92 88 93 87 78 78 68 67 86 76 86 86 90 88 73 84 79 42 49 79 86 83 86 83 75 82 89 93 84 88 83 82 91 94 73 60 84 88 76 66 62
22 23 23 24 26 32 39 93 95 96 93 95 99 93 84 94 85 72 75 64 79 87 79 88 94 99 67 56 68 75 59 60 81 83 87 85 80 77 88 79 71 86 88 85 86 80 68 61 57 78 55 62 59 59
21 22 25 30 27 31 29 80 93 93 96 94 98 97 82 96 76 77 72 56 76 85 78 74 91 70 71 23 23 64 62 83 82 83 86 89 88 83 84 79 79 73 72 84 77 81 60 50 68 52 48 56 53 54
22 22 23 31 34 34 26 29 80 81 94 95 94 99 81 94 80 79 79 47 74 84 82 75 77 86 77 22 29 54 52 85 88 83 90 91 88 84 80 70 67 61 66 69 74 70 60 82 68 52 58 55 56 54
23 25 25 26 31 47 26 27 67 76 94 95 96 99 61 92 94 85 85 79 52 75 71 74 78 87 41 22 46 67 65 71 90 92 92 91 87 83 78 70 74 63 68 59 54 57 73 63 58 61 72 69 64 66
28 26 25 25 28 47 31 24 52 79 81 95 94 99 63 86 90 82 88 91 64 79 89 74 73 42 29 31 45 53 74 90 91 91 92 90 88 87 88 83 69 73 72 76 70 63 72 71 67 68 72 73 73 76
39 48 32 30 28 60 43 32 38 51 85 95 95 81 77 73 75 59 65 75 47 92 86 58 50 45 45 48 49 53 68 88 89 90 89 73 69 75 88 86 66 73 78 79 81 87 84 77 75 80 81 82 83 84
32 33 36 38 30 33 32 34 48 46 91 95 89 76 92 95 87 70 70 61 53 43 61 58 51 38 52 56 48 61 68 81 84 82 67 58 60 69 81 67 74 76 80 84 85 83 80 84 88 86 80 83 88 88
46 37 35 35 34 30 28 32 62 54 93 91 75 60 86 75 35 50 73 74 40 50 65 61 51 56 46 56 63 66 74 89 77 79 63 57 65 76 52 66 73 75 82 80 84 90 93 93 86 84 85 87 90 89
46 40 33 32 36 38 37 36 61 68 88 82 59 34 71 34 33 37 36 68 72 75 78 53 68 54 49 48 62 68 76 84 90 78 60 73 60 56 65 69 72 80 87 92 100 90 89 89 86 90 92 90 91 92
42 38 38 28 38 35 37 45 88 90 91 74 84 90 58 62 32 61 61 60 65 52 59 69 62 47 65 52 59 78 88 86 92 79 72 75 70 67 81 84 88 89 92 94 94 93 96 95 96 95 92 89 93 94
52 42 49 33 43 47 42 54 88 100 96 95 95 100 66 52 70 39 62 58 54 44 68 64 71 65 77 77 80 84 88 88 87 76 85 81 71 70 84 87 87 91 96 96 96 97 96 100 99 99 98 97 98 99
51 48 62 35 70 54 43 85 83 99 99 100 80 48 65 66 42 43 44 61 66 70 83 84 80 76 86 82 91 87 96 88 67 92 81 70 67 74 85 89 90 92 97 99 96 94 96 97 94 98 100 96 99 100
56 68 58 44 50 52 54 76 86 100 100 98 95 94 65 73 67 66 64 71 70 72 71 66 84 75 84 87 92 94 81 85 93 99 77 63 70 72 85 90 96 93 96 96 95 94 97 97 97 92 96 99 100 100
87 77 67 69 71 81 83 82 90 100 98 97 95 94 85 67 76 78 84 75 79 67 72 88 90 72 88 91 93 91 97 97 84 69 63 61 68 75 84 91 93 94 97 100 97 99 97 97 100 95 96 97 99 98
82 91 95 95 92 88 95 90 100 100 99 97 96 95 81 73 81 83 83 86 81 81 90 93 94 91 76 84 94 93 83 78 62 75 61 64 73 77 79 83 88 90 96 97 97 98 98 97 100 100 95 95 97 100
98 98 99 98 92 92 97 100 99 98 97 96 96 88 86 83 84 84 80 87 88 92 94 94 95 90 91 84 91 80 84 64 71 69 63 65 72 78 80 83 89 95 99 97 98 97 96 97 100 94 94 100 98 100
100 97 99 89 100 100 100 100 99 98 97 94 96 93 78 81 82 87 91 92 92 94 95 94 94 95 82 64 65 66 75 81 73 69 64 72 75 78 80 83 90 94 96 96 96 96 97 97 96 92 98 100 97 97
96 98 99 100 100 100 98 98 98 96 92 93 91 83 76 78 84 85 87 93 95 95 94 95 95 93 78 70 75 78 80 77 71 75 77 84 83 85 89 92 92 96 97 97 99 96 96 95 98 100 99 98 92 95
99 100 100 99 100 99 98 97 96 96 95 93 86 89 86 88 88 88 91 93 94 95 95 95 88 78 86 87 83 74 67 72 77 77 72 81 91 95 95 95 92 95 98 99 99 99 99 100 100 100 100 99 96 95
99 98 100 100 100 100 98 96 95 95 94 91 91 84 90 91 93 95 92 93 95 94 94 84 80 89 94 95 85 76 72 90 89 74 68 80 87 90 90 97 97 100 97 95 93 97 89 95 95 99 100 100 100 100
100 100 100 100 97 96 95 95 95 94 93 94 91 90 92 93 94 95 92 95 94 88 84 90 92 93 93 93 94 96 96 96 89 74 81 85 88 88 93 97 100 96 98 96 98 96 98 95 97 96 100 99 98 98
100 99 98 97 95 95 96 93 94 94 94 94 93 94 95 95 94 93 94 92 88 87 93 94 96 98 94 97 96 97 96 97 94 95 96 90 91 94 96 99 96 97 97 98 97 98 97 96 98 97 97 100 100 100
99 94 95 95 95 97 94 98 94 93 94 94 94 94 95 96 94 98 96 91 91 86 80 87 90 86 86 94 90 92 98 97 98 98 94 94 91 97 95 95 96 94 92 93 98 99 98 98 99 97 96 98 100 99
95 94 94 97 95 94 96 99 100 97 100 95 96 95 94 94 100 100 96 90 84 81 87 88 90 90 91 87 90 96 97 98 94 85 96 89 92 100 100 100 97 97 97 97 100 100 99 98 97 97 97 98 99 98
98 95 94 96 97 94 94 97 99 96 95 97 96 98 97 97 99 94 94 95 91 92 92 95 96 89 81 87 89 88 89 81 78 86 87 87 85 86 94 96 96 92 91 94 98 100 100 98 98 97 97 97 98 98
99 97 95 93 93 93 93 93 93 96 97 98 97 96 96 97 95 94 92 94 93 98 100 100 100 96 88 90 93 88 84 84 80 80 78 82 87 90 86 89 94 84 85 93 97 97 96 98 100 100 99 97 97 97
97 96 99 94 95 96 97 98 98 99 98 95 95 98 96 96 94 94 93 100 99 99 98 94 91 89 88 88 88 92 93 90 85 83 83 86 87 90 92 91 92 99 92 95 96 97 97 96 96 96 97 97 97 97
96 92 94 97 96 96 99 98 98 96 93 94 96 95 94 93 95 95 99 99 98 98 97 99 98 97 93 92 93 91 91 92 88 97 98 92 88 78 85 93 98 97 97 100 100 90 91 90 90 94 97 98 98 97
98 97 96 98 97 99 98 96 96 95 94 94 93 93 93 95 98 98 98 98 99 99 99 99 98 98 99 99 97 94 95 95 94 85 96 93 85 84 87 88 95 97 97 99 98 97 100 92 98 98 98 98 98 96
98 96 97 98 98 97 96 97 98 94 94 95 95 95 94 95 98 98 98 99 98 98 98 98 98 98 98 95 96 95 88 83 88 90 91 88 89 88 91 90 92 97 97 97 98 98 96 97 96 97 98 98 98 100
97 100 100 99 97 95 100 100 99 99 98 98 98 97 94 96 96 97 80 86 90 97 100 100 100 98 96 95 94 90 100 85 77 76 79 83 85 90 93 94 95 95 96 98 98 96 97 99 100 99 98 98 98 98
96 96 96 98 95 95 98 99 96 96 98 100 99 99 100 100 94 82 73 87 99 100 100 100 100 100 99 95 90 91 87 86 82 100 91 86 84 87 86 83 82 85 90 93 95 96 97 98 96 96 97 98 98 98
Wind_Speed
9 10 11 12 13 16 17 17 20 22 23 24 26 25 16 12 11 7 3 10 2 1 1 3 2 2 1 1 3 6 4 3 6 6 3 3 3 5 2 3 4 4 4 3 2 3 1 15 3 3 4 8 13 15
10 11 12 13 14 15 17 18 18 20 23 24 25 25 17 11 9 7 2 9 2 1 1 2 3 2 1 3 1 1 2 1 3 2 1 1 1 2 4 1 3 2 2 3 3 3 6 7 4 5 6 9 12 16
12 12 12 13 13 14 17 18 19 19 20 22 24 25 18 11 10 5 3 10 2 0 0 1 2 5 3 5 4 2 1 2 1 1 1 1 0 1 1 1 2 2 1 2 6 2 9 10 10 6 13 14 16 15
14 13 12 13 14 14 16 17 17 19 20 21 22 23 18 12 9 4 3 8 3 2 1 2 2 1 4 9 2 8 1 1 1 1 2 1 1 2 1 2 2 1 2 2 5 5 10 4 3 16 19 17 17 19
15 13 13 13 14 15 15 18 17 18 19 21 22 23 20 10 9 3 1 2 8 1 2 1 3 1 2 7 2 2 4 2 2 2 1 1 1 2 2 1 3 4 4 2 2 1 5 11 13 19 19 18 19 19
16 15 14 14 14 15 16 17 17 17 19 20 21 24 19 7 6 4 0 4 6 1 1 1 1 3 6 4 6 4 2 2 1 1 2 1 1 2 3 3 2 5 7 5 4 2 11 19 18 19 16 20 24 22
16 18 15 14 14 15 16 17 17 16 17 19 21 25 12 7 7 2 1 1 3 0 1 2 1 2 5 3 2 2 2 1 1 2 2 2 2 1 2 3 7 12 9 7 8 6 7 7 8 18 21 23 24 25
17 16 16 15 14 14 16 17 17 17 17 18 22 25 5 3 2 2 2 3 2 3 2 1 1 1 7 2 1 5 2 1 2 2 2 2 3 1 4 5 5 5 5 8 8 9 11 16 17 15 19 19 15 14
19 17 16 16 16 13 16 18 17 17 16 20 24 12 4 4 2 1 6 7 2 2 1 1 1 1 4 2 2 1 2 1 1 1 2 2 2 5 5 6 7 9 6 5 6 8 8 10 12 12 12 13 13 14
20 18 17 16 16 14 16 18 16 15 15 19 8 1 2 3 5 6 0 0 2 3 1 1 1 0 2 1 1 2 2 1 2 1 1 3 4 3 5 6 5 6 6 2 3 4 3 8 10 12 12 15 15 15
20 19 18 16 15 15 17 19 15 12 10 2 4 2 4 6 1 1 2 1 0 1 2 1 1 1 2 1 0 2 1 1 2 2 2 2 4 5 6 7 5 6 7 8 9 10 11 11 11 12 13 16 19 21
21 20 19 17 15 16 17 17 13 10 5 5 6 8 4 2 1 1 2 0 3 3 4 3 2 1 2 1 1 1 1 0 3 1 2 3 4 4 8 7 6 8 8 8 8 10 12 12 14 14 14 16 18 20
22 21 19 17 18 16 16 16 15 16 14 6 2 2 2 1 2 5 5 3 3 6 6 4 3 2 2 1 2 1 2 4 1 2 4 5 1 5 7 4 5 8 9 7 7 7 8 12 12 11 14 16 19 18
21 21 19 18 16 16 15 18 14 20 7 2 3 4 4 4 6 6 4 1 1 4 7 5 4 2 1 2 1 2 1 1 3 3 6 3 7 7 8 5 4 6 9 8 7 5 7 9 12 12 12 13 14 13
21 20 19 20 18 17 19 19 18 26 10 4 4 5 8 5 2 1 2 3 2 5 4 4 4 1 2 2 2 1 1 5 6 5 3 3 6 9 8 7 7 6 6 7 6 4 4 7 10 11 11 11 10 10
18 18 24 20 20 23 25 21 16 16 3 4 5 4 2 1 2 2 4 3 4 5 3 3 4 3 4 3 3 8 4 7 3 4 2 5 7 7 7 7 9 10 9 8 7 6 5 3 5 7 7 9 9 8
21 15 19 19 25 31 29 20 12 7 6 6 6 4 2 3 4 2 4 5 13 5 3 3 6 7 3 2 4 6 6 3 3 3 4 7 9 8 7 9 9 10 9 9 7 6 5 3 3 3 4 6 6 6
26 24 27 35 32 26 10 16 8 5 8 4 4 3 3 1 2 2 3 8 6 4 4 4 5 5 6 6 5 4 5 1 1 1 3 5 6 8 11 11 10 10 9 8 7 5 4 3 2 2 3 3 3 4
31 36 33 31 20 9 6 6 4 5 8 2 0 1 1 1 1 3 4 11 2 4 5 3 4 5 5 4 3 2 3 3 3 3 2 5 9 11 10 9 9 9 9 7 7 6 4 4 2 2 2 2 2 2
33 26 15 11 11 8 4 2 3 2 3 1 1 3 1 1 2 2 5 3 3 3 3 5 6 3 3 1 2 1 1 4 4 3 3 4 7 10 10 10 9 8 8 6 6 6 5 3 3 2 2 3 2 2
9 10 6 5 7 6 1 2 1 1 1 1 1 1 1 1 1 2 3 3 2 3 4 5 2 0 2 2 1 1 3 7 5 3 3 5 10 11 9 9 8 7 7 6 6 7 8 6 4 3 1 0 0 1
5 8 4 7 3 3 3 5 2 2 1 1 1 1 1 1 2 2 3 3 4 3 3 2 2 3 2 2 4 5 4 7 6 5 7 12 5 6 8 9 9 7 7 7 7 6 5 6 4 4 3 2 2 1
5 4 3 2 3 1 1 2 1 2 1 1 0 1 1 2 1 1 3 3 3 3 3 3 4 5 5 4 3 2 3 8 6 5 7 5 7 7 9 10 9 7 5 7 8 8 7 6 6 5 4 2 2 2
3 3 3 2 3 2 1 3 2 2 1 1 1 2 2 1 0 1 3 2 0 2 4 6 6 3 2 1 1 1 3 6 7 7 7 9 7 5 7 8 9 7 5 6 7 6 7 6 6 5 3 3 3 3
4 3 3 2 2 2 2 2 3 2 2 3 3 2 2 2 1 3 3 2 3 3 4 8 4 2 2 2 1 2 4 7 7 4 6 7 7 7 5 5 7 7 7 7 7 7 7 7 5 4 4 4 4 3
2 3 2 1 0 2 2 2 3 3 1 2 2 1 0 0 1 3 1 3 3 3 5 6 4 4 2 2 0 2 4 6 7 3 7 10 10 7 7 4 4 5 8 8 9 9 8 8 7 6 4 3 2 5
2 3 2 2 1 2 1 1 1 1 1 2 1 1 1 2 2 1 1 2 2 5 10 9 7 6 5 2 3 4 7 8 3 2 3 9 8 6 5 5 6 3 5 9 9 9 10 9 7 6 5 4 4 3
2 3 2 4 2 1 1 1 1 0 2 3 1 2 2 1 2 2 2 7 10 9 7 6 5 5 4 3 4 9 8 7 7 7 7 5 4 6 5 3 3 3 5 8 8 8 9 9 8 7 6 5 4 2
3 4 2 3 3 4 3 2 2 1 2 2 2 2 2 2 2 4 5 11 9 7 5 6 7 6 7 7 6 1 5 8 5 2 1 1 3 4 7 8 8 6 6 10 8 6 7 6 7 8 6 6 5 4
3 3 2 2 2 3 1 1 2 2 2 2 2 2 1 2 4 8 9 10 9 7 6 4 3 4 2 2 2 1 5 7 2 0 2 2 3 3 3 8 12 11 8 11 8 9 5 5 7 9 4 4 5 5
2 2 2 2 1 1 1 3 3 2 2 1 0 1 2 1 2 10 14 13 10 8 7 6 5 6 3 3 3 3 4 3 6 7 6 5 3 2 2 5 9 11 12 12 11 9 7 4 4 4 4 5 6 8
3 2 2 3 3 3 2 2 1 1 2 1 2 2 3 1 2 5 14 19 14 12 9 9 7 6 8 5 5 4 4 4 5 6 7 7 5 4 5 6 7 8 9 11 11 10 9 8 8 8 9 10 11 12
3 3 3 2 4 5 3 3 4 4 3 2 2 2 1 1 2 3 10 18 16 12 11 10 10 10 9 8 7 7 6 6 6 6 5 5 6 7 8 9 8 9 10 10 10 10 11 11 12 13 14 14 14 13
Wind_Direction
315 328 338 343 347 349 352 356 360 2 4 2 1 360 0 0 353 359 331 357 338 153 232 218 294 340 350 70 353 319 327 8 357 44 34 33 5 19 344 20 351 353 328 10 280 274 156 9 7 25 354 321 328 325
301 313 325 333 338 344 342 343 350 355 358 0 358 357 356 356 347 358 344 343 10 203 22 229 308 237 173 136 252 351 328 277 359 353 29 206 70 345 349 13 35 238 21 306 311 18 1 348 289 85 7 329 322 317
288 301 313 320 328 338 335 335 337 344 350 356 354 354 354 344 348 2 352 2 48 352 237 265 195 188 157 6 247 290 234 265 268 332 314 334 111 270 330 2 294 155 348 254 325 85 324 319 149 3 352 330 319 316
280 292 303 311 317 325 331 331 330 336 341 347 350 350 351 333 340 6 29 24 40 77 202 162 129 161 232 343 273 223 248 225 249 259 262 274 263 333 189 76 247 56 324 313 267 309 321 121 223 336 331 324 319 318
273 282 291 301 308 310 325 323 325 332 336 341 345 344 348 324 310 316 221 73 26 337 275 266 295 222 298 356 31 167 191 210 216 191 212 187 99 159 45 320 240 186 179 222 292 182 263 282 305 317 314 317 319 317
268 272 281 292 299 303 315 320 321 327 330 333 340 334 340 309 297 313 219 223 339 184 147 288 34 21 358 30 50 47 45 200 256 126 113 105 6 239 197 239 175 176 187 200 252 224 286 280 293 300 313 311 311 306
263 273 277 284 293 299 306 313 316 324 325 326 331 329 313 288 274 248 241 303 350 94 123 297 249 48 357 20 49 359 13 47 8 115 112 150 174 141 190 236 176 196 200 240 256 296 275 244 298 309 301 299 303 300
261 265 272 281 284 295 300 302 309 319 320 325 322 329 274 263 222 226 270 313 291 143 77 198 256 178 8 27 13 357 349 345 46 119 153 166 156 213 241 210 163 186 243 263 248 219 267 290 298 292 300 305 308 306
258 260 263 271 278 288 294 297 302 314 322 320 324 310 264 232 236 179 303 291 198 199 189 175 222 220 8 35 335 3 352 181 44 180 157 194 177 228 224 175 196 194 194 184 233 264 261 263 286 299 309 309 311 310
257 258 262 269 273 283 288 290 298 310 314 321 320 300 292 191 308 299 45 168 37 351 41 225 80 192 346 6 81 331 11 22 251 153 153 215 257 250 202 189 178 190 212 179 280 290 274 290 301 303 304 302 297 299
255 257 261 263 267 276 281 284 288 301 312 301 4 272 292 308 284 35 266 215 84 226 183 147 195 166 21 313 119 36 123 333 253 152 259 227 258 222 174 178 188 207 208 210 230 264 271 277 293 302 306 309 307 306
251 256 261 263 266 271 277 280 279 264 232 233 257 281 310 14 37 223 236 313 218 224 161 171 154 104 99 354 141 65 221 138 247 57 252 247 238 186 169 188 199 200 211 235 229 250 274 275 277 280 288 300 307 308
252 256 257 259 261 266 271 274 271 265 253 256 56 360 53 265 246 199 209 223 231 173 172 165 143 130 127 76 90 160 201 225 322 223 237 239 192 181 183 165 194 210 220 239 255 253 272 289 305 304 300 319 321 318
252 256 257 257 261 264 269 268 261 226 207 198 180 245 202 214 241 199 205 229 76 122 144 131 109 153 143 132 111 199 135 265 244 242 233 221 206 185 178 183 167 197 199 226 245 272 296 305 314 324 329 336 334 331
252 257 262 257 261 269 265 257 246 214 175 188 167 227 213 238 252 206 113 124 83 123 118 100 82 138 116 151 205 119 189 242 227 231 226 204 168 161 176 186 202 200 206 224 232 236 272 307 317 325 345 354 353 357
253 263 254 254 271 277 263 255 213 188 207 183 214 253 220 313 240 190 181 148 155 138 100 79 122 145 215 162 173 214 190 226 230 218 207 144 157 169 183 194 196 199 202 218 228 245 264 283 311 317 342 13 14 15
251 241 249 252 278 269 265 223 168 184 204 205 235 227 214 277 259 168 154 153 155 157 174 152 186 199 106 202 237 197 216 230 205 182 174 170 172 181 183 189 193 196 207 215 225 233 249 280 283 304 3 6 10 15
243 252 263 286 269 254 204 190 177 208 227 216 221 184 182 215 152 154 135 147 151 190 154 200 125 187 208 206 224 220 224 262 328 315 181 164 154 164 176 190 192 199 209 213 219 229 233 245 237 282 320 334 342 359
265 272 270 276 266 186 173 204 198 219 221 148 102 188 176 85 35 68 140 160 79 102 123 167 218 217 224 218 242 202 197 194 175 183 196 177 177 170 174 183 186 194 207 208 212 218 220 219 234 280 297 304 314 326
266 261 250 249 258 176 186 186 182 239 226 192 142 171 128 104 88 124 127 121 142 164 190 215 222 213 203 203 239 275 125 155 133 155 191 195 189 176 186 185 192 197 202 206 212 209 204 214 228 260 272 241 254 313
257 254 240 214 184 186 68 130 157 334 123 192 58 157 65 58 100 139 144 149 195 219 239 235 248 190 197 181 280 253 160 180 194 197 185 171 182 185 185 192 188 189 195 201 206 216 213 209 219 231 258 46 344 251
189 183 171 179 107 77 83 27 58 58 49 43 110 14 124 178 178 190 141 197 230 239 245 301 343 341 270 241 235 230 245 193 167 144 113 120 140 171 182 181 176 195 202 209 207 202 193 190 200 206 204 204 181 195
165 154 101 88 102 87 73 7 117 31 217 145 45 286 220 199 116 267 236 226 265 27 336 317 327 317 309 297 264 227 196 174 158 146 138 130 139 150 156 173 187 185 195 212 207 200 199 210 216 200 184 179 176 84
97 66 89 72 23 151 23 40 35 73 95 225 234 274 180 158 172 195 258 270 21 350 351 339 321 309 306 318 260 223 178 165 132 120 143 139 136 138 159 175 186 197 203 193 185 183 186 182 166 163 180 188 183 170
92 314 97 33 36 89 80 50 11 63 235 213 214 228 181 156 242 235 243 292 343 358 359 344 333 305 306 320 30 100 168 167 156 149 173 173 147 140 155 186 195 197 199 189 183 186 189 191 187 189 188 185 184 176
93 319 46 96 359 113 168 145 199 210 208 259 242 69 57 175 260 260 355 334 328 331 342 337 331 327 317 341 277 172 186 168 158 141 187 185 185 182 182 183 193 218 213 203 193 189 188 190 190 189 189 199 237 175
90 9 338 10 70 130 154 81 53 179 252 243 177 165 183 255 271 39 8 31 321 329 326 325 312 306 312 357 90 96 143 152 147 148 154 188 194 198 199 192 206 215 198 195 193 195 193 192 189 186 181 180 182 179
115 32 26 319 358 25 112 87 153 126 18 351 126 224 225 281 350 351 352 341 340 342 351 8 21 26 46 79 127 138 135 133 122 110 107 130 187 209 210 189 145 148 181 184 188 190 195 194 191 191 193 192 185 230
47 343 319 7 17 46 48 39 31 34 344 317 309 317 5 36 18 339 326 336 340 343 357 10 26 51 75 96 119 144 164 160 143 76 67 294 326 242 223 207 193 176 172 172 186 178 175 160 197 196 198 214 230 222
349 343 51 30 50 37 352 344 321 333 293 294 304 299 248 75 22 7 3 7 11 5 357 5 27 6 38 11 353 13 199 207 234 331 177 239 271 290 257 215 204 200 194 193 184 169 111 134 104 148 174 192 210 232
332 27 55 48 75 259 263 292 289 249 256 286 346 286 315 355 65 31 22 8 1 3 5 3 358 7 352 350 323 320 321 278 258 263 271 270 299 285 217 193 198 206 211 209 210 214 217 210 203 213 230 245 251 259
21 65 84 17 314 292 8 14 309 323 340 4 5 349 330 278 75 16 10 11 11 12 7 0 355 350 356 310 294 286 301 323 327 300 251 250 238 231 210 198 193 196 196 201 208 216 221 230 244 258 269 275 278 283
32 25 28 33 358 3 334 36 24 344 18 22 334 352 3 65 123 307 5 9 5 353 342 332 327 319 317 318 315 278 288 291 299 309 303 255 233 220 204 193 196 205 210 214 218 226 236 246 259 272 281 286 287 284